SCP
-0 0 -0 -0 0 0 0 0 0 0 0 0 0 0 0 0 0 0 0 0 0 0 0 1 1 1 0 0 0 0 0 0 0 0 0 0 0 0 0 0 0 0 0 0 0 0 0 0 0
-0 0 0 0 0 0 0 0 -0 0 0 0 0 0 0 0 0 0 0 0 0 0 0 0 1 1 1 0 0 1 0 0 0 0 0 0 0 0 0 0 0 0 0 0 0 0 0 0 0
0 0 -0 0 0 0 0 0 0 0 0 0 0 0 0 0 0 0 0 0 0 0 0 0 1 1 1 1 1 1 1 0 0 0 0 0 0 0 0 0 0 0 0 0 0 0 0 0 0
0 0 0 0 0 0 0 0 0 0 0 0 0 0 0 0 0 0 0 0 0 0 0 1 2 1 1 1 1 1 0 0 0 0 0 0 0 0 0 0 0 0 0 0 0 0 0 0 0
0 0 0 0 0 0 0 0 0 0 0 0 0 0 0 0 0 0 0 0 0 0 0 1 1 1 1 1 0 0 0 1 1 1 0 0 0 0 0 0 0 0 0 0 0 0 0 0 0
0 0 0 0 0 0 0 0 0 0 0 0 0 0 0 0 0 0 0 0 0 0 0 0 1 1 1 1 0 1 0 0 0 0 0 0 0 0 0 0 0 0 0 0 0 0 0 0 0
0 0 0 0 0 0 -0 0 0 0 0 0 0 0 0 0 0 0 0 0 0 0 0 0 0 0 1 1 1 1 0 0 0 0 0 0 0 0 0 0 0 0 0 0 0 0 0 0 0
0 0 0 0 0 -0 0 -0 0 0 0 0 0 0 0 0 0 0 0 0 0 0 0 0 0 0 0 0 0 0 0 0 0 0 0 0 0 0 0 0 0 0 0 0 0 0 0 0 0
0 0 0 0 0 0 0 0 0 0 0 0 0 0 0 0 0 0 0 0 0 0 0 0 0 0 0 0 0 0 0 0 0 0 0 0 0 0 0 0 0 0 0 0 -0 0 0 0 0
0 0 0 0 0 -0 0 0 0 0 0 0 0 0 0 0 0 0 0 0 0 0 0 0 0 0 0 0 0 0 0 0 0 0 0 0 0 0 0 0 0 0 0 0 0 0 0 0 0
0 0 0 0 0 -0 0 0 0 0 0 0 0 0 0 0 0 0 0 0 0 0 0 0 0 0 0 0 0 0 0 0 0 0 0 0 0 0 0 0 0 0 0 0 0 0 0 0 0
0 0 0 0 -0 0 0 0 0 0 0 0 0 0 0 0 0 0 0 0 0 0 0 0 0 0 0 0 0 0 0 0 0 0 0 0 0 0 0 0 0 0 0 0 0 0 0 0 0
0 0 0 0 0 -0 0 0 0 0 -0 0 0 0 0 0 0 0 0 0 0 0 0 0 0 0 0 0 0 0 0 0 0 0 0 0 0 0 0 0 0 0 0 0 0 0 0 0 0
0 0 0 0 0 0 0 -0 0 0 0 0 0 0 0 -0 -0 0 0 0 0 0 0 0 0 0 0 0 0 0 0 0 0 0 0 0 0 0 0 0 0 0 0 0 0 0 0 0 0
0 0 0 0 0 -0 -0 -0 0 -0 0 0 0 0 0 0 0 0 -0 0 0 0 0 0 0 0 0 0 0 0 0 0 0 0 0 0 0 0 0 0 0 0 0 0 0 0 0 0 0
0 0 0 0 -0 0 0 -0 0 -0 0 0 0 0 0 0 0 0 0 0 0 0 0 0 0 0 0 0 0 0 0 0 0 0 0 0 0 0 0 0 0 0 0 0 0 -0 0 0 0
0 0 0 0 0 0 0 -0 -0 -0 0 0 0 0 0 0 0 0 0 0 0 0 0 0 0 0 0 0 0 0 0 0 0 0 0 0 0 0 0 0 0 0 0 0 0 0 0 0 0
0 0 0 -0 -0 -0 -0 -0 -0 0 0 -0 0 0 0 0 0 0 0 0 0 0 0 0 0 0 0 0 0 0 0 0 0 0 0 0 0 0 0 0 0 0 0 0 0 0 0 0 0
0 0 0 -0 0 0 -0 0 0 -0 0 0 0 0 0 0 0 0 0 0 0 0 0 0 0 0 0 0 0 0 0 0 0 0 0 0 0 0 -0 0 0 0 0 -0 0 0 0 0 0
0 0 -0 0 0 0 0 -0 -0 0 0 0 0 0 0 0 0 0 0 0 0 0 0 0 0 0 0 0 0 0 0 0 0 0 0 0 0 0 -0 -0 0 -0 -0 -0 0 0 0 0 0
-0 0 -0 0 0 0 0 -0 0 -0 0 -0 -0 0 0 0 0 0 0 0 0 0 0 0 0 0 0 0 0 0 0 0 0 0 0 0 0 0 -0 -0 0 -0 -0 -0 0 0 0 0 0
-0 -0 0 0 -0 -0 0 -0 0 0 0 0 -0 0 0 0 0 0 0 0 0 0 0 0 0 0 0 0 0 0 0 0 0 0 0 0 -0 0 -0 0 0 0 -0 -0 0 0 0 0 0
0 0 0 0 -0 0 -0 0 0 0 -0 -0 0 0 0 0 0 0 0 0 0 0 0 0 0 0 0 0 0 0 0 0 0 0 0 0 -0 -0 0 -0 0 0 -0 0 0 0 0 0 0
0 0 0 0 -0 -0 -0 0 0 0 0 0 0 0 0 0 0 0 0 0 0 0 0 0 0 0 0 0 0 0 0 0 0 0 0 0 -0 -0 0 0 -0 0 0 0 0 0 0 0 0
0 0 0 0 0 -0 -0 0 0 0 0 0 0 0 0 0 0 0 0 0 0 0 0 0 0 0 0 0 0 0 0 0 0 0 0 0 0 0 0 0 0 0 0 0 0 0 0 0 0
-0 0 0 0 0 0 0 0 -0 -0 -0 0 0 0 0 0 0 0 0 0 0 0 0 0 0 0 0 0 0 0 0 0 0 0 0 0 -0 -0 0 0 0 0 0 0 0 0 0 0 0
0 -0 -0 0 0 0 0 0 0 0 0 -0 0 0 0 0 0 0 0 0 0 0 0 0 0 0 0 0 0 0 0 0 0 0 0 0 0 -0 0 0 0 0 0 0 0 0 0 0 0
-0 0 0 0 0 0 0 0 0 0 0 0 -0 0 0 0 0 0 0 0 0 -0 0 0 0 0 0 -0 0 0 0 0 0 0 0 0 -0 0 -0 0 0 0 0 0 0 0 0 0 0
0 -0 0 0 0 0 0 -0 0 0 0 -0 -0 0 0 0 0 0 0 0 0 -0 -0 0 0 0 0 -0 0 0 0 0 0 0 0 0 -0 0 0 0 0 0 0 0 0 0 0 0 0
0 0 -0 -0 0 0 0 0 0 -0 0 -0 -0 -0 0 0 -0 -0 -0 -0 -0 -0 -0 -0 0 0 0 0 0 0 0 0 0 0 -0 0 0 0 0 0 0 0 0 0 0 0 0 0 0
Wind_Speed_500mb
8 9 5 5 4 6 6 13 7 13 7 9 10 13 15 6 6 6 32 30 31 24 23 21 14 15 14 14 18 21 23 26 25 25 25 23 21 20 22 25 28 27 23 19 20 23 24 26 28
10 11 5 3 4 1 9 12 3 10 14 18 41 41 12 1 16 27 44 35 24 16 16 15 15 13 14 16 20 26 29 30 29 26 27 26 28 29 25 28 29 27 28 25 21 21 26 27 26
14 11 3 5 6 10 9 10 11 20 25 19 10 9 18 20 23 29 23 31 23 18 8 11 17 21 19 20 26 29 33 31 29 30 32 33 37 33 31 30 32 32 31 29 29 26 25 30 30
11 6 10 4 18 17 10 24 23 13 11 10 22 14 13 11 24 29 29 25 21 17 12 19 22 20 18 21 30 31 28 29 33 36 39 40 39 37 36 35 38 37 36 34 34 35 29 28 33
15 5 3 7 14 14 14 31 21 7 11 14 11 8 13 38 24 36 34 28 25 26 24 23 21 25 26 32 31 29 31 25 27 34 41 45 42 42 42 43 41 39 39 38 37 39 37 31 36
6 3 2 8 14 11 15 18 39 18 7 21 17 27 20 32 36 37 29 30 32 20 23 21 22 25 24 33 33 34 38 31 28 26 30 35 41 45 46 46 46 45 44 44 43 41 41 35 36
8 5 9 11 26 25 8 20 13 22 12 5 32 13 17 48 42 35 31 28 26 19 21 23 21 22 28 27 28 33 38 30 25 29 29 28 30 38 43 47 45 45 49 50 48 47 45 44 39
11 8 9 9 12 33 15 24 35 6 21 30 34 17 14 56 46 38 33 20 15 18 24 27 23 27 28 26 25 36 30 23 24 28 32 35 32 33 32 34 35 36 38 42 44 47 50 47 43
15 4 15 14 12 24 36 9 29 29 13 18 21 23 24 46 50 46 41 29 30 34 31 30 31 30 22 20 33 33 26 27 27 29 35 39 37 35 31 29 26 25 27 28 41 43 46 48 47
19 10 25 25 23 21 46 20 28 13 33 8 18 17 18 54 61 54 43 35 40 40 40 37 29 22 16 26 32 24 26 30 29 32 36 35 39 31 28 26 26 24 31 32 32 40 44 46 49
17 21 47 42 53 54 52 43 44 17 14 16 29 36 45 62 59 52 40 29 37 44 47 37 29 23 27 39 34 27 27 33 35 30 33 36 28 25 23 25 24 24 24 38 33 31 42 46 48
13 39 54 63 70 54 34 61 29 34 40 23 27 37 51 62 59 47 40 44 41 45 46 38 25 26 31 38 30 22 22 24 32 36 39 35 28 25 21 25 26 23 25 27 31 29 38 43 44
23 44 64 68 68 68 66 45 37 34 62 26 30 49 55 57 50 44 42 41 52 51 45 37 25 26 35 31 27 25 28 24 25 35 31 31 31 30 27 29 24 26 27 29 29 31 38 43 35
45 42 52 62 64 62 36 46 29 47 58 36 39 48 53 54 49 52 58 56 55 51 45 34 22 27 33 29 29 33 37 30 28 26 29 34 38 36 31 28 24 25 25 29 29 29 39 41 35
47 23 24 40 47 41 51 34 15 52 55 50 47 47 53 53 54 63 70 68 62 54 46 30 20 23 26 25 26 34 31 31 29 29 28 34 37 31 29 28 26 24 24 29 33 27 38 38 33
13 10 20 19 29 49 24 42 30 55 52 47 49 49 58 60 66 66 72 67 62 57 43 23 19 17 17 16 24 28 25 22 25 30 28 31 34 35 33 27 25 22 24 29 36 30 37 45 37
8 28 35 37 27 27 16 35 24 60 52 52 50 52 52 70 68 68 76 69 63 53 37 23 14 14 11 14 21 26 23 21 22 26 26 25 32 35 35 30 20 19 17 27 35 33 34 42 40
23 16 13 36 35 16 22 26 26 69 56 57 54 59 53 67 69 67 75 68 61 46 28 16 12 6 7 14 19 19 18 20 24 27 29 26 22 26 28 23 20 18 17 30 37 33 34 34 36
22 12 22 36 34 12 19 30 33 32 23 27 54 65 66 45 50 66 73 67 55 39 23 15 9 2 6 11 13 17 22 22 24 26 30 23 21 23 25 18 17 22 23 31 35 36 36 35 31
25 25 39 40 37 11 28 44 40 16 17 46 58 53 50 33 47 72 73 65 51 35 20 13 4 2 2 10 16 22 24 18 22 18 26 21 3 16 16 11 16 24 28 33 37 39 41 39 37
32 35 40 39 28 18 17 22 27 20 26 37 37 53 38 44 73 77 71 58 47 31 17 12 5 0 3 11 18 21 18 18 19 15 25 11 4 12 12 11 14 23 30 40 39 36 37 44 45
36 43 38 39 22 15 14 13 12 13 13 11 19 15 36 59 75 83 70 60 45 26 19 10 6 2 1 11 20 25 25 23 15 16 17 4 3 7 14 12 19 21 28 40 39 38 38 45 52
42 28 30 29 26 6 39 4 16 9 11 18 13 30 48 65 82 80 71 58 37 24 21 8 5 5 4 10 23 27 24 14 8 11 7 5 2 9 10 15 19 18 24 32 41 41 40 45 47
45 13 15 19 13 15 30 11 28 10 15 9 1 32 54 63 73 71 62 47 35 27 21 9 7 7 8 9 19 23 11 10 11 9 9 7 3 7 16 18 22 19 24 31 36 39 43 42 41
26 18 9 7 13 16 16 10 25 16 16 16 17 35 56 67 69 68 62 51 38 33 25 11 9 7 11 10 14 11 13 10 15 14 11 7 3 5 10 27 27 25 24 29 33 37 40 39 44
47 27 12 15 7 7 13 15 21 17 19 38 51 57 65 67 66 70 60 50 37 34 26 13 15 12 15 7 10 7 12 12 17 16 13 5 8 13 13 26 31 30 29 30 33 36 36 38 38
20 34 25 5 4 4 9 11 13 9 12 23 34 53 60 67 70 66 58 48 37 35 25 17 20 17 16 7 2 7 12 10 16 19 11 7 13 14 14 22 30 33 30 31 32 32 31 36 40
42 10 17 1 16 14 8 7 11 9 16 20 22 35 54 67 68 64 59 49 38 30 26 24 23 20 14 5 4 9 12 11 14 14 12 12 10 15 17 22 28 33 35 33 34 31 33 43 39
15 39 15 14 13 15 10 17 14 22 25 30 30 50 73 72 71 66 59 47 40 33 33 27 27 22 15 7 5 6 10 13 14 15 12 14 14 15 19 21 28 33 35 37 40 36 38 43 35
36 18 42 22 14 6 12 18 11 18 33 34 36 58 71 73 73 65 57 52 46 42 38 28 29 23 16 8 8 6 9 12 15 23 16 15 12 16 16 23 23 31 35 38 37 37 37 40 44
Wind_Direction_500mb
171 182 217 276 28 69 262 261 265 282 190 197 146 143 144 74 162 214 154 162 166 188 202 213 241 281 281 293 306 306 297 285 275 270 269 266 250 260 271 277 283 279 281 274 265 259 238 231 231
200 203 291 272 103 15 264 246 272 279 242 151 118 125 111 189 142 153 165 184 204 206 216 249 268 269 263 270 287 298 295 294 287 278 278 276 270 272 266 268 270 270 276 273 269 260 251 236 237
203 218 271 166 186 200 217 252 325 288 196 193 119 139 137 159 173 172 182 183 187 199 228 243 219 220 239 276 296 300 296 292 282 273 274 269 273 273 273 268 263 266 262 268 269 262 254 245 232
208 221 241 195 240 257 239 277 228 291 345 219 149 72 90 167 174 180 174 177 195 203 212 227 231 243 265 293 307 306 307 297 275 267 269 274 270 271 273 269 265 265 260 255 260 269 259 250 237
205 249 277 260 261 267 280 265 300 322 292 114 151 163 126 162 184 169 175 189 205 195 205 221 250 277 291 306 306 310 312 303 286 274 269 270 267 268 266 265 267 263 259 255 253 253 259 243 241
212 244 335 264 264 276 300 299 348 302 282 129 115 141 165 190 190 168 188 193 207 223 224 235 263 273 271 289 303 309 315 309 302 294 289 276 269 265 264 265 264 262 259 254 249 251 245 247 244
158 86 234 263 283 300 252 276 282 253 246 219 166 138 179 181 190 185 199 201 212 215 237 241 262 255 261 271 291 301 308 300 303 300 302 312 289 275 269 264 258 255 250 249 248 244 248 242 238
189 128 283 249 278 285 288 329 326 256 254 248 175 168 185 192 190 192 201 210 204 221 232 240 240 238 250 265 291 304 301 299 299 287 299 310 307 297 286 272 262 256 254 250 249 247 240 238 234
203 131 261 246 231 262 294 295 304 318 283 218 224 210 251 193 187 190 197 206 212 222 222 230 228 232 253 289 308 303 286 279 283 280 298 305 308 310 298 280 265 257 256 252 240 239 235 232 229
186 157 239 236 259 269 280 276 288 301 313 327 177 201 195 181 186 194 204 208 213 218 215 228 223 242 269 310 323 308 280 275 283 289 296 299 306 306 299 281 271 269 249 253 246 237 230 225 223
206 214 241 265 261 264 273 285 287 291 311 254 191 182 178 179 190 203 219 219 222 227 219 212 219 247 296 321 328 323 298 283 279 280 288 301 294 292 303 290 284 268 259 248 250 236 225 217 220
265 249 254 259 265 268 265 275 258 270 276 278 212 201 186 187 198 207 209 211 214 197 205 217 235 276 306 321 333 333 332 306 278 279 285 280 279 282 293 301 286 277 261 254 235 230 222 215 223
247 250 254 257 264 268 272 262 246 263 284 232 198 195 199 202 209 213 207 207 213 212 218 228 250 291 305 323 333 331 327 313 299 280 278 270 275 276 288 301 284 282 271 252 236 225 215 212 209
245 243 256 264 267 271 271 271 253 267 276 233 208 200 207 204 212 207 203 210 214 219 224 230 256 287 307 326 328 326 317 305 304 296 279 268 267 275 274 289 282 275 281 244 232 222 207 206 205
266 272 278 268 268 270 283 275 236 270 263 229 201 218 213 212 214 214 208 214 221 221 223 227 265 288 311 322 320 319 312 301 304 301 283 271 269 268 270 275 276 274 272 246 223 210 202 202 204
298 289 265 261 270 268 241 270 271 275 250 234 232 232 221 221 220 216 213 214 213 221 217 226 267 292 312 313 318 308 310 313 313 302 286 268 266 269 269 273 274 272 270 236 207 199 199 201 202
225 255 263 271 255 266 221 269 267 278 256 231 229 247 260 235 218 217 208 210 215 215 215 239 255 293 320 319 311 307 306 314 324 324 301 284 259 259 261 265 263 273 261 199 196 197 199 193 194
226 240 245 254 252 251 268 270 275 278 246 228 235 252 248 232 227 216 202 206 210 210 213 225 243 287 342 326 317 321 316 322 320 322 325 299 271 247 246 248 245 247 209 180 187 190 186 186 184
243 250 252 257 262 250 254 264 260 269 236 229 237 251 256 249 241 208 197 199 201 201 201 216 238 349 358 328 329 323 324 314 316 324 326 321 284 231 230 227 223 214 194 185 183 184 181 183 189
225 247 255 270 271 268 279 273 255 245 231 228 233 249 250 209 191 182 187 194 200 192 198 207 220 127 5 345 342 333 326 326 322 327 339 333 264 190 206 225 197 194 185 185 186 189 186 188 187
224 227 245 251 274 268 272 280 271 274 240 263 269 259 252 207 179 181 185 190 189 184 202 193 170 152 267 347 347 336 335 332 327 320 334 315 188 188 199 183 184 184 186 187 187 189 194 184 178
233 224 237 248 258 258 159 268 290 247 239 233 279 248 204 188 184 183 181 185 179 185 185 185 154 257 228 331 334 338 338 336 335 339 346 336 211 231 187 184 186 185 186 191 191 192 184 177 172
236 222 237 251 246 237 276 216 259 285 280 282 232 191 187 185 184 180 186 179 179 186 182 160 158 186 151 327 327 336 336 349 24 1 340 332 298 223 203 186 197 177 183 182 186 192 185 183 188
236 250 250 261 241 242 249 179 278 225 221 246 129 189 184 180 178 183 179 177 176 177 177 169 170 139 154 280 327 343 16 71 27 357 335 319 278 216 207 180 185 175 181 179 182 187 187 187 192
208 194 243 266 210 225 226 225 252 252 236 203 169 165 176 178 180 179 177 177 177 178 177 178 162 150 173 254 344 24 70 41 7 14 10 357 131 169 171 171 179 170 169 178 176 183 183 188 193
221 199 194 198 200 199 224 212 247 221 260 204 168 165 172 180 181 178 180 180 179 179 180 179 163 171 182 264 349 62 40 41 28 24 18 97 156 139 140 167 170 168 169 170 173 181 183 186 189
205 218 203 166 223 85 215 268 355 119 104 124 144 154 169 177 179 178 181 182 180 181 186 184 180 183 189 271 13 65 28 18 21 30 31 82 125 113 126 153 172 172 179 176 174 176 183 185 184
218 153 180 202 204 224 276 214 222 166 173 152 149 166 171 178 178 178 182 181 184 185 180 181 188 189 187 266 104 45 59 45 32 34 71 95 124 119 133 145 153 162 167 173 174 175 183 176 184
180 218 223 177 180 192 208 247 210 194 177 169 177 175 176 179 180 180 182 184 186 183 183 182 183 186 191 225 179 62 64 54 51 45 98 102 91 118 132 143 152 152 157 169 174 173 176 180 181
210 184 210 221 217 207 172 246 252 213 167 169 174 176 178 181 181 181 182 183 185 185 185 188 186 196 205 206 205 140 82 75 74 63 86 110 103 109 127 136 143 151 157 166 173 166 170 179 172
Wind_Speed_850mb
8 9 5 5 4 6 6 13 7 13 7 9 10 13 15 6 6 6 32 30 31 24 23 21 14 15 14 14 18 21 23 26 25 25 25 23 21 20 22 25 28 27 23 19 20 23 24 26 28
10 11 5 3 4 1 9 12 3 10 14 18 41 41 12 1 16 27 44 35 24 16 16 15 15 13 14 16 20 26 29 30 29 26 27 26 28 29 25 28 29 27 28 25 21 21 26 27 26
14 11 3 5 6 10 9 10 11 20 25 19 10 9 18 20 23 29 23 31 23 18 8 11 17 21 19 20 26 29 33 31 29 30 32 33 37 33 31 30 32 32 31 29 29 26 25 30 30
11 6 10 4 18 17 10 24 23 13 11 10 22 14 13 11 24 29 29 25 21 17 12 19 22 20 18 21 30 31 28 29 33 36 39 40 39 37 36 35 38 37 36 34 34 35 29 28 33
15 5 3 7 14 14 14 31 21 7 11 14 11 8 13 38 24 36 34 28 25 26 24 23 21 25 26 32 31 29 31 25 27 34 41 45 42 42 42 43 41 39 39 38 37 39 37 31 36
6 3 2 8 14 11 15 18 39 18 7 21 17 27 20 32 36 37 29 30 32 20 23 21 22 25 24 33 33 34 38 31 28 26 30 35 41 45 46 46 46 45 44 44 43 41 41 35 36
8 5 9 11 26 25 8 20 13 22 12 5 32 13 17 48 42 35 31 28 26 19 21 23 21 22 28 27 28 33 38 30 25 29 29 28 30 38 43 47 45 45 49 50 48 47 45 44 39
11 8 9 9 12 33 15 24 35 6 21 30 34 17 14 56 46 38 33 20 15 18 24 27 23 27 28 26 25 36 30 23 24 28 32 35 32 33 32 34 35 36 38 42 44 47 50 47 43
15 4 15 14 12 24 36 9 29 29 13 18 21 23 24 46 50 46 41 29 30 34 31 30 31 30 22 20 33 33 26 27 27 29 35 39 37 35 31 29 26 25 27 28 41 43 46 48 47
19 10 25 25 23 21 46 20 28 13 33 8 18 17 18 54 61 54 43 35 40 40 40 37 29 22 16 26 32 24 26 30 29 32 36 35 39 31 28 26 26 24 31 32 32 40 44 46 49
17 21 47 42 53 54 52 43 44 17 14 16 29 36 45 62 59 52 40 29 37 44 47 37 29 23 27 39 34 27 27 33 35 30 33 36 28 25 23 25 24 24 24 38 33 31 42 46 48
13 39 54 63 70 54 34 61 29 34 40 23 27 37 51 62 59 47 40 44 41 45 46 38 25 26 31 38 30 22 22 24 32 36 39 35 28 25 21 25 26 23 25 27 31 29 38 43 44
23 44 64 68 68 68 66 45 37 34 62 26 30 49 55 57 50 44 42 41 52 51 45 37 25 26 35 31 27 25 28 24 25 35 31 31 31 30 27 29 24 26 27 29 29 31 38 43 35
45 42 52 62 64 62 36 46 29 47 58 36 39 48 53 54 49 52 58 56 55 51 45 34 22 27 33 29 29 33 37 30 28 26 29 34 38 36 31 28 24 25 25 29 29 29 39 41 35
47 23 24 40 47 41 51 34 15 52 55 50 47 47 53 53 54 63 70 68 62 54 46 30 20 23 26 25 26 34 31 31 29 29 28 34 37 31 29 28 26 24 24 29 33 27 38 38 33
13 10 20 19 29 49 24 42 30 55 52 47 49 49 58 60 66 66 72 67 62 57 43 23 19 17 17 16 24 28 25 22 25 30 28 31 34 35 33 27 25 22 24 29 36 30 37 45 37
8 28 35 37 27 27 16 35 24 60 52 52 50 52 52 70 68 68 76 69 63 53 37 23 14 14 11 14 21 26 23 21 22 26 26 25 32 35 35 30 20 19 17 27 35 33 34 42 40
23 16 13 36 35 16 22 26 26 69 56 57 54 59 53 67 69 67 75 68 61 46 28 16 12 6 7 14 19 19 18 20 24 27 29 26 22 26 28 23 20 18 17 30 37 33 34 34 36
22 12 22 36 34 12 19 30 33 32 23 27 54 65 66 45 50 66 73 67 55 39 23 15 9 2 6 11 13 17 22 22 24 26 30 23 21 23 25 18 17 22 23 31 35 36 36 35 31
25 25 39 40 37 11 28 44 40 16 17 46 58 53 50 33 47 72 73 65 51 35 20 13 4 2 2 10 16 22 24 18 22 18 26 21 3 16 16 11 16 24 28 33 37 39 41 39 37
32 35 40 39 28 18 17 22 27 20 26 37 37 53 38 44 73 77 71 58 47 31 17 12 5 0 3 11 18 21 18 18 19 15 25 11 4 12 12 11 14 23 30 40 39 36 37 44 45
36 43 38 39 22 15 14 13 12 13 13 11 19 15 36 59 75 83 70 60 45 26 19 10 6 2 1 11 20 25 25 23 15 16 17 4 3 7 14 12 19 21 28 40 39 38 38 45 52
42 28 30 29 26 6 39 4 16 9 11 18 13 30 48 65 82 80 71 58 37 24 21 8 5 5 4 10 23 27 24 14 8 11 7 5 2 9 10 15 19 18 24 32 41 41 40 45 47
45 13 15 19 13 15 30 11 28 10 15 9 1 32 54 63 73 71 62 47 35 27 21 9 7 7 8 9 19 23 11 10 11 9 9 7 3 7 16 18 22 19 24 31 36 39 43 42 41
26 18 9 7 13 16 16 10 25 16 16 16 17 35 56 67 69 68 62 51 38 33 25 11 9 7 11 10 14 11 13 10 15 14 11 7 3 5 10 27 27 25 24 29 33 37 40 39 44
47 27 12 15 7 7 13 15 21 17 19 38 51 57 65 67 66 70 60 50 37 34 26 13 15 12 15 7 10 7 12 12 17 16 13 5 8 13 13 26 31 30 29 30 33 36 36 38 38
20 34 25 5 4 4 9 11 13 9 12 23 34 53 60 67 70 66 58 48 37 35 25 17 20 17 16 7 2 7 12 10 16 19 11 7 13 14 14 22 30 33 30 31 32 32 31 36 40
42 10 17 1 16 14 8 7 11 9 16 20 22 35 54 67 68 64 59 49 38 30 26 24 23 20 14 5 4 9 12 11 14 14 12 12 10 15 17 22 28 33 35 33 34 31 33 43 39
15 39 15 14 13 15 10 17 14 22 25 30 30 50 73 72 71 66 59 47 40 33 33 27 27 22 15 7 5 6 10 13 14 15 12 14 14 15 19 21 28 33 35 37 40 36 38 43 35
36 18 42 22 14 6 12 18 11 18 33 34 36 58 71 73 73 65 57 52 46 42 38 28 29 23 16 8 8 6 9 12 15 23 16 15 12 16 16 23 23 31 35 38 37 37 37 40 44
Wind_Direction_850mb
171 182 217 276 28 69 262 261 265 282 190 197 146 143 144 74 162 214 154 162 166 188 202 213 241 281 281 293 306 306 297 285 275 270 269 266 250 260 271 277 283 279 281 274 265 259 238 231 231
200 203 291 272 103 15 264 246 272 279 242 151 118 125 111 189 142 153 165 184 204 206 216 249 268 269 263 270 287 298 295 294 287 278 278 276 270 272 266 268 270 270 276 273 269 260 251 236 237
203 218 271 166 186 200 217 252 325 288 196 193 119 139 137 159 173 172 182 183 187 199 228 243 219 220 239 276 296 300 296 292 282 273 274 269 273 273 273 268 263 266 262 268 269 262 254 245 232
208 221 241 195 240 257 239 277 228 291 345 219 149 72 90 167 174 180 174 177 195 203 212 227 231 243 265 293 307 306 307 297 275 267 269 274 270 271 273 269 265 265 260 255 260 269 259 250 237
205 249 277 260 261 267 280 265 300 322 292 114 151 163 126 162 184 169 175 189 205 195 205 221 250 277 291 306 306 310 312 303 286 274 269 270 267 268 266 265 267 263 259 255 253 253 259 243 241
212 244 335 264 264 276 300 299 348 302 282 129 115 141 165 190 190 168 188 193 207 223 224 235 263 273 271 289 303 309 315 309 302 294 289 276 269 265 264 265 264 262 259 254 249 251 245 247 244
158 86 234 263 283 300 252 276 282 253 246 219 166 138 179 181 190 185 199 201 212 215 237 241 262 255 261 271 291 301 308 300 303 300 302 312 289 275 269 264 258 255 250 249 248 244 248 242 238
189 128 283 249 278 285 288 329 326 256 254 248 175 168 185 192 190 192 201 210 204 221 232 240 240 238 250 265 291 304 301 299 299 287 299 310 307 297 286 272 262 256 254 250 249 247 240 238 234
203 131 261 246 231 262 294 295 304 318 283 218 224 210 251 193 187 190 197 206 212 222 222 230 228 232 253 289 308 303 286 279 283 280 298 305 308 310 298 280 265 257 256 252 240 239 235 232 229
186 157 239 236 259 269 280 276 288 301 313 327 177 201 195 181 186 194 204 208 213 218 215 228 223 242 269 310 323 308 280 275 283 289 296 299 306 306 299 281 271 269 249 253 246 237 230 225 223
206 214 241 265 261 264 273 285 287 291 311 254 191 182 178 179 190 203 219 219 222 227 219 212 219 247 296 321 328 323 298 283 279 280 288 301 294 292 303 290 284 268 259 248 250 236 225 217 220
265 249 254 259 265 268 265 275 258 270 276 278 212 201 186 187 198 207 209 211 214 197 205 217 235 276 306 321 333 333 332 306 278 279 285 280 279 282 293 301 286 277 261 254 235 230 222 215 223
247 250 254 257 264 268 272 262 246 263 284 232 198 195 199 202 209 213 207 207 213 212 218 228 250 291 305 323 333 331 327 313 299 280 278 270 275 276 288 301 284 282 271 252 236 225 215 212 209
245 243 256 264 267 271 271 271 253 267 276 233 208 200 207 204 212 207 203 210 214 219 224 230 256 287 307 326 328 326 317 305 304 296 279 268 267 275 274 289 282 275 281 244 232 222 207 206 205
266 272 278 268 268 270 283 275 236 270 263 229 201 218 213 212 214 214 208 214 221 221 223 227 265 288 311 322 320 319 312 301 304 301 283 271 269 268 270 275 276 274 272 246 223 210 202 202 204
298 289 265 261 270 268 241 270 271 275 250 234 232 232 221 221 220 216 213 214 213 221 217 226 267 292 312 313 318 308 310 313 313 302 286 268 266 269 269 273 274 272 270 236 207 199 199 201 202
225 255 263 271 255 266 221 269 267 278 256 231 229 247 260 235 218 217 208 210 215 215 215 239 255 293 320 319 311 307 306 314 324 324 301 284 259 259 261 265 263 273 261 199 196 197 199 193 194
226 240 245 254 252 251 268 270 275 278 246 228 235 252 248 232 227 216 202 206 210 210 213 225 243 287 342 326 317 321 316 322 320 322 325 299 271 247 246 248 245 247 209 180 187 190 186 186 184
243 250 252 257 262 250 254 264 260 269 236 229 237 251 256 249 241 208 197 199 201 201 201 216 238 349 358 328 329 323 324 314 316 324 326 321 284 231 230 227 223 214 194 185 183 184 181 183 189
225 247 255 270 271 268 279 273 255 245 231 228 233 249 250 209 191 182 187 194 200 192 198 207 220 127 5 345 342 333 326 326 322 327 339 333 264 190 206 225 197 194 185 185 186 189 186 188 187
224 227 245 251 274 268 272 280 271 274 240 263 269 259 252 207 179 181 185 190 189 184 202 193 170 152 267 347 347 336 335 332 327 320 334 315 188 188 199 183 184 184 186 187 187 189 194 184 178
233 224 237 248 258 258 159 268 290 247 239 233 279 248 204 188 184 183 181 185 179 185 185 185 154 257 228 331 334 338 338 336 335 339 346 336 211 231 187 184 186 185 186 191 191 192 184 177 172
236 222 237 251 246 237 276 216 259 285 280 282 232 191 187 185 184 180 186 179 179 186 182 160 158 186 151 327 327 336 336 349 24 1 340 332 298 223 203 186 197 177 183 182 186 192 185 183 188
236 250 250 261 241 242 249 179 278 225 221 246 129 189 184 180 178 183 179 177 176 177 177 169 170 139 154 280 327 343 16 71 27 357 335 319 278 216 207 180 185 175 181 179 182 187 187 187 192
208 194 243 266 210 225 226 225 252 252 236 203 169 165 176 178 180 179 177 177 177 178 177 178 162 150 173 254 344 24 70 41 7 14 10 357 131 169 171 171 179 170 169 178 176 183 183 188 193
221 199 194 198 200 199 224 212 247 221 260 204 168 165 172 180 181 178 180 180 179 179 180 179 163 171 182 264 349 62 40 41 28 24 18 97 156 139 140 167 170 168 169 170 173 181 183 186 189
205 218 203 166 223 85 215 268 355 119 104 124 144 154 169 177 179 178 181 182 180 181 186 184 180 183 189 271 13 65 28 18 21 30 31 82 125 113 126 153 172 172 179 176 174 176 183 185 184
218 153 180 202 204 224 276 214 222 166 173 152 149 166 171 178 178 178 182 181 184 185 180 181 188 189 187 266 104 45 59 45 32 34 71 95 124 119 133 145 153 162 167 173 174 175 183 176 184
180 218 223 177 180 192 208 247 210 194 177 169 177 175 176 179 180 180 182 184 186 183 183 182 183 186 191 225 179 62 64 54 51 45 98 102 91 118 132 143 152 152 157 169 174 173 176 180 181
210 184 210 221 217 207 172 246 252 213 167 169 174 176 178 181 181 181 182 183 185 185 185 188 186 196 205 206 205 140 82 75 74 63 86 110 103 109 127 136 143 151 157 166 173 166 170 179 172